Home > Weather > Poitiers > Past weeks

Flag for France Past Weather in Poitiers, Poitou-Charentes, France — Yesterday and Last 2 Weeks

Now
55 °F

Clear.


Feels Like: 55 °F
Forecast: 54 / 72 °F
Wind: 3 mph from Southwest

Location: Poitiers Airport

Current Time: Jun 29, 2016 at 2:20:34 AM

Latest Report: Jun 29, 2016 at 1:30 AM


Visibility: 10 mi

Pressure: 30.07 "Hg

Humidity: 94%

Dew Point: 54 °F

Location of PoitiersLocation

Past Weather in Poitiers — Graph

°F

Poitiers Temperature Yesterday

Maximum temperature yesterday: 73 °F (at 6:00 PM)
Minimum temperature yesterday: 61 °F (at 1:00 AM)
Average temperature yesterday: 65 °F

High & Low Weather Summary for the Past Weeks

 TemperatureHumidityPressure
High88 °F (Jun 22, 3:00 PM)100% (Jun 15, 1:00 AM)30.36 "Hg (Jun 15, 1:00 AM)
Low46 °F (Jun 18, 6:00 AM)41% (Jun 25, 5:00 PM)29.53 "Hg (Jun 15, 3:30 AM)
Average63 °F80%30.03 "Hg
* Reported Jun 14 1:00 AM — Jun 29 1:00 AM, Poitiers, Weather by CustomWeather, © 2016

Note: Actual official high and low records may vary slightly from our data, if they occured in-between our weather recording intervals... More about our weather records

Advertising

Poitiers Weather History for the Previous 24 Hours

Scroll right to see more
 ConditionsComfort  
Time TempWeatherWind HumidityBarometerVisibility
1:00 AM
Wed, Jun 29
55 °FClear.3 mph94%30.07 "Hg10 mi
12:30 AM57 °FClear.7 mph88%30.07 "Hg10 mi
12:00 AM61 °FClear.8 mph83%30.07 "Hg10 mi
11:30 PM
Tue, Jun 28
61 °FClear.9 mph83%30.07 "Hg10 mi
11:00 PM63 °FClear.8 mph77%30.07 "Hg10 mi
10:30 PM63 °FSunny.10 mph83%30.04 "Hg10 mi
10:00 PM64 °FSunny.12 mph78%30.04 "Hg10 mi
9:30 PM66 °FSunny.9 mph73%30.04 "Hg10 mi
9:00 PM68 °FSunny.10 mph69%30.04 "Hg10 mi
8:30 PM70 °FPassing clouds.12 mph64%30.04 "HgN/A
8:00 PM72 °FPassing clouds.14 mph61%30.04 "HgN/A
7:30 PM72 °FPassing clouds.14 mph61%30.01 "HgN/A
7:00 PM73 °FPassing clouds.14 mph61%30.04 "HgN/A
6:30 PM73 °FScattered clouds.15 mph61%30.04 "HgN/A
6:00 PM73 °FScattered clouds.13 mph61%30.04 "HgN/A
5:30 PM72 °FBroken clouds.13 mph69%30.04 "HgN/A
5:00 PM72 °FSunny.13 mph65%30.04 "Hg10 mi
4:30 PM72 °FMore clouds than sun.15 mph69%30.04 "HgN/A
4:00 PM72 °FPartly sunny.10 mph69%30.04 "HgN/A
3:30 PM72 °FPartly sunny.9 mph69%30.07 "HgN/A
3:00 PM70 °FPartly sunny.10 mph73%30.07 "HgN/A
2:30 PM68 °FPartly sunny.8 mph78%30.09 "HgN/A
2:00 PM68 °FPartly sunny.8 mph78%30.09 "HgN/A
1:30 PM70 °FMostly cloudy.7 mph78%30.09 "HgN/A
1:00 PM68 °FMostly cloudy.7 mph83%30.09 "HgN/A
12:30 PM64 °FLight rain. Partly sunny.12 mph88%30.09 "HgN/A
12:00 PM64 °FMostly cloudy.6 mph88%30.12 "HgN/A
11:30 AM64 °FMostly cloudy.8 mph88%30.12 "HgN/A
11:00 AM63 °FLight rain. Partly sunny.6 mph94%30.12 "Hg4 mi
10:30 AM63 °FLight rain. Mostly cloudy.2 mph94%30.12 "HgN/A
10:00 AM63 °FLight rain. Fog.5 mph94%30.12 "Hg2 mi
9:30 AM63 °FDrizzle. Low clouds.8 mph94%30.12 "Hg5 mi
9:00 AM63 °FPartly sunny.8 mph88%30.12 "HgN/A
8:30 AM63 °FPartly sunny.7 mph94%30.12 "HgN/A
8:00 AM61 °FMostly cloudy.5 mph100%30.15 "HgN/A
7:30 AM61 °FCloudy.5 mph94%30.15 "HgN/A
7:00 AM61 °FMostly cloudy.3 mph94%30.15 "HgN/A
6:30 AM61 °FMostly cloudy.3 mph94%30.15 "HgN/A
6:00 AM61 °FOvercast.5 mph94%30.12 "HgN/A
5:30 AM61 °FOvercast.3 mph94%30.15 "HgN/A
5:00 AM61 °FMostly cloudy.3 mph94%30.15 "HgN/A
4:30 AM61 °FDrizzle. Low clouds.5 mph94%30.15 "Hg4 mi
4:00 AM61 °FLow clouds.5 mph94%30.15 "HgN/A
3:30 AM61 °FMostly cloudy.6 mph94%30.15 "HgN/A
3:00 AM61 °FMostly cloudy.6 mph94%30.18 "HgN/A
2:30 AM61 °FOvercast.5 mph94%30.18 "HgN/A
2:00 AM61 °FMostly cloudy.5 mph94%30.18 "HgN/A
Weather by CustomWeather, © 2016

See weather overviewHow to use our weather pages